Location: Artolsheim
(48.2072°N, 7.5725°E)
Time: 14:13:45
(UTC+00:00)

Daily predictions for brighter satellites

Satellite Brightness Start Highest point End
(mag) Time Altitude Azimuth Time Altitude Azimuth Time Altitude Azimuth
Cosmos 1980 3.8 18:17:49 10° SSW 18:23:31 88° ESE 18:29:15 10° NNE
STARLINK-1109 3.6 18:19:46 10° WNW 18:23:52 86° SSW 18:27:58 10° ESE
SL-8 R/B 3.7 18:19:10 10° W 18:23:57 89° N 18:28:46 10° E
STARLINK-1123 4.2 18:20:08 10° WNW 18:24:10 48° NNE 18:28:12 10° E
ERBS 3.2 18:22:28 10° WSW 18:25:45 48° NNW 18:29:04 10° NE
STARLINK-1246 3.9 18:22:02 10° SW 18:25:57 47° SE 18:29:54 10° ENE
CZ-2D R/B 4.3 18:24:05 10° S 18:27:48 50° W 18:31:32 10° NNW
STARLINK-1091 3.7 18:24:35 10° WNW 18:28:41 81° SSW 18:32:47 10° ESE
Cosmos 1766 3.3 18:24:56 10° S 18:28:53 70° E 18:32:52 10° NNE
STARLINK-1097 4.2 18:25:07 10° WNW 18:29:09 50° NNE 18:33:12 10° E
Orbus 7S? 4.3 18:26:27 10° WNW 18:29:18 29° SW 18:31:30 10° SSE
STARLINK-1066 3.7 18:27:56 10° WNW 18:31:00 48° SW 18:34:03 10° SE
STARLINK-67 2.8 18:28:42 10° WSW 18:31:16 61° NNW 18:33:50 10° ENE
ADEOS Rocket 3.3 18:24:25 10° NNE 18:31:20 83° WNW 18:37:28 10° SSW
STARLINK-1081 3.7 18:28:25 10° WNW 18:31:27 47° SW 18:34:27 10° SE
STARLINK-1201 2.9 18:28:28 10° SW 18:31:43 74° SSE 18:34:59 10° ENE
USA 234 4.0 18:26:06 10° ENE 18:31:52 32° SE 18:37:34 10° S
STARLINK-1070 3.7 18:28:53 10° WNW 18:31:54 46° SW 18:34:54 10° SE
STARLINK-1069 3.7 18:29:18 10° WNW 18:32:21 46° SW 18:35:23 10° SE
STARLINK-1085 3.7 18:29:44 10° WNW 18:32:47 46° SW 18:35:50 10° SE
STARLINK-1224 3.8 18:29:12 10° SW 18:33:09 52° SE 18:37:07 10° ENE
STARLINK-1086 3.7 18:30:14 10° WNW 18:33:15 45° SW 18:36:15 10° SE
Cosmos 1626 2.6 18:30:01 10° N 18:33:34 40° ENE 18:37:04 10° SSE
STARLINK-1095 3.7 18:30:41 10° WNW 18:33:41 45° SW 18:36:41 10° SE
STARLINK-1077 3.8 18:31:08 10° WNW 18:34:09 44° SW 18:37:08 10° SE
STARLINK-1099 4.1 18:30:06 10° WNW 18:34:10 51° NNE 18:38:13 10° E
STARLINK-1075 3.8 18:31:35 10° WNW 18:34:35 44° SW 18:37:35 10° SE
STARLINK-1203 3.6 18:30:52 10° SW 18:34:46 57° SSE 18:38:41 10° ENE
STARLINK-1093 3.8 18:32:00 10° WNW 18:35:02 44° SW 18:38:03 10° SE
STARLINK-1074 3.8 18:32:28 10° WNW 18:35:29 44° SW 18:38:30 10° SE
H-2A R/B 2.2 18:30:23 10° SSE 18:35:34 57° ENE 18:40:38 10° N
STARLINK-1087 3.8 18:32:56 10° WNW 18:35:55 43° SW 18:38:54 10° SE
STARLINK-1088 3.8 18:33:24 10° WNW 18:36:24 43° SW 18:39:22 10° SE
HJ-1C 3.5 18:33:16 10° S 18:36:36 80° WSW 18:39:59 10° NNW
STARLINK-1115 3.9 18:33:49 10° WNW 18:36:50 43° SW 18:39:51 10° SE
STARLINK-1076 3.9 18:34:16 10° WNW 18:37:17 42° SW 18:40:17 10° SE
SL-16 R/B 2.5 18:32:14 10° S 18:37:32 43° ESE 18:42:52 10° NE
STARLINK-1092 3.9 18:34:43 10° WNW 18:37:44 42° SW 18:40:44 10° SE
STARLINK-1225 3.7 18:33:48 10° SW 18:37:47 56° SE 18:41:47 10° ENE
CSL-04 Rocket 4.5 18:32:56 10° S 18:38:08 54° W 18:43:20 10° NNW
STARLINK-1080 3.9 18:35:13 10° WNW 18:38:11 41° SW 18:41:09 10° SE
STARLINK-1090 3.9 18:35:40 10° WNW 18:38:38 41° SW 18:41:35 10° SE
STARLINK-1072 3.7 18:34:55 10° WNW 18:38:57 70° SSW 18:42:57 10° SE
STARLINK-1089 3.9 18:36:06 10° WNW 18:39:05 40° SW 18:42:01 10° SE
STARLINK-1104 4.1 18:35:06 10° WNW 18:39:10 53° NNE 18:43:12 10° E
STARLINK-1107 3.9 18:36:34 10° WNW 18:39:32 40° SW 18:42:29 10° SE
Cosmos 2333 Rocket 4.1 18:34:48 10° WSW 18:39:56 33° NW 18:45:03 10° NNE
SL-08 RB Rocket 4.3 18:36:06 10° SE 18:40:14 37° ENE 18:44:26 10° N
Resurs 01 Rocket 3.2 18:39:03 10° ESE 18:42:08 19° ENE 18:45:15 10° NNE
STARLINK-1230 3.6 18:38:30 10° SW 18:42:30 60° SSE 18:46:32 10° ENE
STARLINK-1096 3.8 18:39:17 10° WNW 18:43:17 66° SSW 18:47:17 10° SE
STARLINK-1144 4.0 18:40:05 10° WNW 18:44:10 55° NNE 18:47:59 12° E
STARLINK-1233 2.9 18:42:00 10° WSW 18:45:08 86° NNW 18:48:18 10° ENE
STARLINK-1212 2.9 18:42:28 10° WSW 18:45:36 86° NNW 18:48:45 10° ENE
STARLINK-1105 2.9 18:42:54 10° WSW 18:46:02 85° NNW 18:49:11 10° ENE
FREGAT/IRIS 2.4 18:43:31 10° SSE 18:46:11 53° ENE 18:48:52 10° N
STARLINK-1206 2.9 18:43:24 10° WSW 18:46:31 85° NNW 18:49:39 10° ENE
STARLINK-1247 2.9 18:43:50 10° WSW 18:46:57 84° NNW 18:50:05 10° ENE
Cosmos 1302 Rocket 4.1 18:42:02 10° NNW 18:47:17 62° ENE 18:52:31 10° SE
STARLINK-1243 3.6 18:43:17 10° SW 18:47:19 65° SSE 18:51:22 10° ENE
STARLINK-1227 2.9 18:44:15 10° WSW 18:47:23 84° NNW 18:50:33 10° ENE
STARLINK-1218 2.9 18:44:44 10° WSW 18:47:51 83° NNW 18:50:59 10° ENE
Abrixas rocket 3.9 18:46:27 10° S 18:48:11 15° SE 18:49:07 13° ESE
STARLINK-1226 2.9 18:45:11 10° WSW 18:48:18 83° NNW 18:51:26 10° ENE
STARLINK-1079 3.9 18:44:20 10° WNW 18:48:20 61° SSW 18:52:10 11° SE
STARLINK-1254 2.9 18:45:37 10° WSW 18:48:45 82° NNW 18:51:54 10° ENE
STARLINK-1103 4.0 18:45:03 10° WNW 18:49:09 57° NNE 18:52:45 13° E
STARLINK-1215 2.9 18:46:06 10° WSW 18:49:13 81° NNW 18:52:21 10° ENE
STARLINK-1231 2.9 18:46:32 10° WSW 18:49:39 81° NNW 18:52:47 10° ENE
Cosmos 304 Rocket 4.1 18:45:12 10° NNW 18:49:58 68° WSW 18:54:43 10° S
Cosmos 1709 Rocket 4.0 18:44:14 10° N 18:50:27 68° ENE 18:56:33 10° SSE
STARLINK-1232 2.9 18:47:27 10° WSW 18:50:33 80° NNW 18:53:42 10° ENE
SeaSat 1 3.9 18:46:05 10° NNE 18:50:45 42° NW 18:55:22 10° WSW
Cosmos 1953 3.7 18:47:56 10° SE 18:50:45 19° E 18:53:36 10° NE
STARLINK-1217 2.9 18:47:54 10° WSW 18:51:01 79° NNW 18:54:08 10° ENE
STARLINK-1208 3.0 18:48:18 10° WSW 18:51:26 79° NNW 18:54:36 10° ENE
STARLINK-1229 2.9 18:48:47 10° WSW 18:51:54 78° NNW 18:55:02 10° ENE
STARLINK-1236 3.5 18:48:02 10° SW 18:52:05 69° SSE 18:56:09 10° ENE
STARLINK-1271 3.0 18:49:14 10° WSW 18:52:22 78° NNW 18:55:30 10° ENE
STARLINK-1116 4.0 18:48:46 10° WNW 18:52:45 58° SSW 18:56:26 12° SE
STARLINK-1270 3.0 18:49:42 10° WSW 18:52:49 77° NNW 18:55:57 10° ENE
STARLINK-1154 3.0 18:50:09 10° WSW 18:53:16 77° NNW 18:56:24 10° ENE
STARLINK-1101 3.9 18:50:02 10° WNW 18:54:09 59° NNE 18:57:32 15° E
STARLINK-1197 3.0 18:51:04 10° WSW 18:54:11 76° NNW 18:57:18 10° ENE
Cosmos 1269 Rocket 4.0 18:49:09 10° SSW 18:54:24 70° ESE 18:59:42 10° NNE
STARLINK-1189 3.0 18:51:31 10° WSW 18:54:37 75° NNW 18:57:45 10° ENE
MONITOR-E 3.7 18:52:05 10° SSE 18:54:42 66° ENE 18:57:20 10° N
STARLINK-1187 3.1 18:52:22 10° WSW 18:55:29 68° NNW 18:58:38 10° ENE
STARLINK-1188 3.0 18:52:25 10° WSW 18:55:32 74° NNW 18:58:40 10° ENE
STARLINK-1198 3.0 18:52:26 10° WSW 18:55:32 74° NNW 18:58:40 10° ENE
STARLINK-1235 3.3 18:53:05 10° WSW 18:56:13 63° NNW 18:59:20 10° ENE
CZ-4C R/B 4.3 18:51:53 10° WNW 18:56:31 25° NNW 19:01:54 10° NE
STARLINK-1199 3.1 18:54:21 10° WSW 18:57:29 72° NNW 19:00:38 10° ENE
STARLINK-1191 3.1 18:54:48 10° WSW 18:57:56 72° NNW 19:01:05 10° ENE
STARLINK-1210 3.1 18:55:16 10° WSW 18:58:23 72° NNW 19:01:33 10° ENE
STARLINK-1221 3.1 18:55:42 10° WSW 18:58:50 71° NNW 19:01:59 10° ENE
STARLINK-1102 3.9 18:55:01 10° WNW 18:59:08 62° NNE 19:02:19 16° E
STARLINK-1219 3.1 18:56:10 10° WSW 18:59:18 71° NNW 19:02:27 10° ENE
STARLINK-1222 3.1 18:56:37 10° WSW 18:59:45 70° NNW 19:02:54 10° ENE
STARLINK-1211 3.1 18:57:04 10° WSW 19:00:12 70° NNW 19:03:20 10° ENE
ISS -3.3 18:56:57 10° WNW 19:00:15 54° NNE 19:02:41 17° E
STARLINK-1214 3.1 18:57:31 10° WSW 19:00:39 69° NNW 19:03:46 10° ENE
STARLINK-1245 3.1 18:58:00 10° WSW 19:01:06 69° NNW 19:04:10 10° ENE
STARLINK-1238 3.1 18:58:23 10° WSW 19:01:31 68° NNW 19:04:37 10° ENE
Cosmos 2297 3.8 18:56:02 10° NNW 19:01:44 83° WSW 19:07:25 10° SSE
STARLINK-1269 3.5 18:57:50 10° WSW 19:01:55 79° SSE 19:06:00 10° ENE
STARLINK-1094 4.2 18:58:03 10° WNW 19:01:59 50° SW 19:05:21 13° SE
Cosmos 1455 Rocket 3.2 18:57:51 10° SSW 19:02:11 78° W 19:06:34 10° N
Cosmos 2251 Rocket 4.5 18:57:53 10° SSE 19:02:12 26° E 19:06:35 10° NE
STARLINK-1205 3.1 18:59:19 10° WSW 19:02:25 67° NNW 19:05:27 11° ENE
BREEZE-M DEB (TANK) 4.1 18:54:06 10° W 19:02:47 76° N 19:05:20 16° E
STARLINK-1204 3.2 18:59:48 10° WSW 19:02:54 67° NNW 19:05:54 11° ENE
Cosmos 2084 Rocket 4.0 18:59:32 10° NW 19:03:52 46° NE 19:06:58 18° ESE
STARLINK-1111 3.8 19:00:00 10° WNW 19:04:08 64° NNE 19:07:06 18° E
STARLINK-1200 3.5 19:02:38 10° WSW 19:06:43 83° SSE 19:10:49 10° ENE
STARLINK-1117 4.3 19:02:55 10° WNW 19:06:49 46° SW 19:10:00 14° SE
Cosmos 2237 Rocket 3.2 19:01:37 10° SW 19:07:05 50° NW 19:12:35 10° NNE
CZ-2C R/B 3.3 19:04:17 10° NNE 19:08:48 29° E 19:13:16 10° SSE
STARLINK-1073 3.7 19:05:00 10° WNW 19:09:08 68° NNE 19:11:53 20° ESE
Cosmos 1626 Rocket 3.5 19:04:55 10° N 19:09:21 74° E 19:13:42 10° SSE
STARLINK-1078 4.4 19:07:22 10° WNW 19:11:14 43° SW 19:14:17 15° SSE
STARLINK-1192 3.5 19:07:23 10° WSW 19:11:28 88° SSE 19:15:24 11° ENE
STARLINK-1121 3.7 19:09:57 10° WNW 19:14:06 71° NNE 19:16:39 22° ESE
Cosmos 292 Rocket 4.1 19:10:55 10° NNW 19:15:33 46° ENE 19:18:32 20° SE
ARGOS 3.3 19:10:33 10° SSE 19:15:58 80° WSW 19:21:24 10° NNW
STARLINK-1244 3.5 19:12:18 10° WSW 19:16:23 88° NNW 19:20:08 12° ENE
Cosmos 1602 Rocket 3.5 19:12:53 10° N 19:17:21 70° ENE 19:21:44 10° SSE
IRIDIUM 104 4.5 19:13:38 10° N 19:18:46 53° E 19:23:42 11° SSE
STARLINK-1106 3.6 19:14:55 10° WNW 19:19:04 74° NNE 19:21:25 25° ESE
STARLINK-1138 3.6 19:16:54 10° WSW 19:21:00 83° NNW 19:24:34 14° ENE
STARLINK-1234 3.8 19:19:09 10° W 19:22:01 43° NNW 19:24:04 17° NE
MOS 1 Rocket 4.0 19:18:18 10° NNE 19:23:15 41° E 19:28:20 10° SSE
USA 186 3.0 19:19:58 10° S 19:23:17 46° W 19:26:34 10° NNW
STARLINK-1112 3.6 19:19:55 10° WNW 19:24:05 78° NNE 19:26:14 27° ESE
STARLINK-1143 3.6 19:21:48 10° WSW 19:25:54 79° NNW 19:29:16 15° ENE
MetOp-A 4.1 19:21:24 11° SSE 19:26:38 75° ENE 19:32:00 10° NNW
IRIDIUM 114 4.3 19:22:45 10° N 19:27:58 64° E 19:32:51 11° SSE
CZ-2C R/B 3.5 19:23:28 10° S 19:28:26 58° W 19:33:14 10° NNW
STARLINK-1128 3.6 19:24:54 10° WNW 19:29:04 83° NNE 19:31:01 30° ESE
Cosmos 1544 Rocket 4.4 19:25:30 10° SSW 19:29:49 54° WNW 19:34:11 10° N
Cosmos 1437 3.6 19:28:55 10° N 19:31:24 29° ENE 19:31:24 29° ENE
Cosmos 1470 2.9 19:27:54 10° SSW 19:31:46 76° W 19:35:42 10° N
STARLINK-1113 3.5 19:29:53 10° WNW 19:34:02 87° NNE 19:35:47 34° ESE
STARLINK-1241 3.7 19:30:11 10° WSW 19:34:14 72° NNW 19:37:13 18° ENE
SPOT 3 Rocket 3.6 19:29:52 10° SSE 19:35:06 86° WSW 19:40:22 10° NNW
Cosmos 1825 Rocket 3.9 19:32:08 10° N 19:36:24 44° ENE 19:37:53 32° ESE
IRIDIUM 103 4.2 19:31:54 10° N 19:37:09 77° E 19:42:00 12° S
STARLINK-1119 3.5 19:34:51 10° WNW 19:39:01 89° SSW 19:40:34 37° ESE
STARLINK-1239 3.8 19:35:07 10° WSW 19:39:10 69° NNW 19:41:56 19° ENE
Cosmos 2369 Rocket 2.2 19:34:26 10° NNW 19:40:10 68° ENE 19:43:14 28° SE
SJ-6B 3.9 19:37:28 10° S 19:41:22 45° W 19:45:22 10° NNW
Cosmos 1726 2.3 19:42:57 43° ESE 19:43:30 47° E 19:47:07 10° NNE
STARLINK-1240 3.9 19:39:52 10° WSW 19:43:54 66° NNW 19:46:28 21° ENE
STARLINK-1114 3.5 19:39:52 10° WNW 19:44:02 84° SSW 19:45:24 41° SE
Aureole 2 Rocket 2.3 19:41:45 10° NNW 19:45:16 72° ENE 19:45:56 53° SE
Cosmos 1758 3.9 19:41:44 10° SSW 19:45:47 60° WNW 19:49:51 10° N
Cosmos 2263 4.3 19:40:37 10° NNW 19:46:11 57° ENE 19:48:35 32° ESE
Cosmos 1758 Rocket 3.5 19:41:52 10° N 19:46:13 65° ENE 19:47:54 35° SSE
STARLINK-1216 3.9 19:44:37 10° WSW 19:48:39 63° NNW 19:51:02 23° NE
NOSS 3-3 (A) 4.1 19:43:16 10° S 19:48:47 45° ESE 19:54:55 10° NE
NOSS 3-3 (C) 4.1 19:43:23 10° S 19:48:53 44° ESE 19:55:02 10° NE
CZ-2C R/B 3.9 19:44:11 10° NNE 19:48:58 79° WNW 19:53:40 10° SSW
STARLINK-1130 (DARKSAT) 3.6 19:44:50 10° WNW 19:49:00 79° SSW 19:50:10 46° SE
STARLINK-1209 4.2 19:49:21 10° WNW 19:52:05 33° N 19:52:50 28° NNE
Cosmos 1953 Rocket 3.9 19:48:24 10° N 19:52:41 45° ENE 19:53:22 41° ESE
STARLINK-1237 4.0 19:49:25 10° W 19:53:27 60° NNW 19:55:38 25° NE
STARLINK-1084 3.6 19:49:48 10° WNW 19:53:57 74° SSW 19:54:56 50° SE
Terra 3.6 19:53:53 17° ENE 19:54:02 17° ENE 19:57:01 10° NNE
STARLINK-1228 4.1 19:51:34 10° WNW 19:54:15 33° N 19:54:50 29° NNE
Cosmos 2184 Rocket 3.9 19:48:58 10° N 19:55:20 81° E 19:59:37 22° SSE
IRIDIUM 106 4.4 19:50:12 10° N 19:55:26 76° W 20:00:12 12° S
Spot 2 Rocket 3.7 19:55:42 38° ESE 19:57:13 51° ENE 20:02:11 10° N
STARLINK-1202 4.1 19:54:11 10° W 19:58:12 58° NNW 20:00:11 27° NE
STARLINK-1098 3.6 19:54:48 10° WNW 19:58:56 69° SSW 19:59:43 53° SSE
Cosmos 1606 Rocket 3.6 19:59:08 49° SE 19:59:43 53° E 20:04:04 10° NNE
Cosmos 1943 Rocket 2.4 19:56:02 10° NNW 20:01:32 68° WSW 20:04:35 27° S
SPOT 1/Viking Rocket 4.1 20:00:50 35° E 20:01:47 38° ENE 20:06:35 10° N
Meteor 1-21 Rocket 4.4 19:56:18 10° NNW 20:01:51 68° W 20:06:08 17° S
STARLINK-1123 3.7 19:59:47 10° WNW 20:03:54 65° SSW 20:04:30 56° SSE
Cosmos 1943 3.4 20:01:04 25° S 20:04:01 47° ESE 20:09:28 10° NE
STARLINK-1246 4.2 20:01:24 10° W 20:05:26 55° NNW 20:07:11 30° NE
STARLINK-67 4.5 20:03:17 10° WNW 20:05:15 26° NNW 20:05:15 26° NNW
Meteor 2-10 4.0 20:00:49 10° S 20:06:09 83° E 20:11:45 10° NNE
SL-8 R/B 3.6 20:01:45 10° W 20:06:33 79° SSW 20:07:34 55° ESE
STARLINK-1201 4.2 20:05:05 10° W 20:08:09 38° N 20:08:41 35° NNE
Resurs 1-3 4.4 20:05:32 20° SSW 20:08:21 50° W 20:12:39 10° NNW
STARLINK-1097 3.7 20:04:45 10° WNW 20:08:51 60° SSW 20:09:16 57° S
ATLAS 2AS CENTAUR R/B 3.2 20:03:46 10° NW 20:11:22 55° NE 20:14:22 35° E
STARLINK-1224 4.2 20:08:35 10° W 20:12:34 52° NNW 20:13:58 34° NE
STARLINK-1099 3.8 20:09:46 10° WNW 20:13:50 56° SW 20:14:04 55° SSW
STARLINK-1203 4.3 20:10:00 10° W 20:13:53 49° NNW 20:15:06 35° NE
H-2A R/B 4.3 20:11:13 10° SW 20:15:18 22° W 20:19:22 10° NW
USA 234 3.2 20:08:47 10° NE 20:15:22 89° NW 20:21:56 10° WSW
USA 245 4.0 20:15:17 52° SE 20:16:25 68° ENE 20:22:17 10° N
Cosmos 2154 Rocket 3.9 20:10:03 10° N 20:16:27 76° E 20:19:00 39° SSE
STARLINK-1225 4.3 20:13:12 10° W 20:17:11 50° NNW 20:18:23 37° NE
Resurs 01 Rocket 2.1 20:16:28 32° SSW 20:18:15 56° W 20:22:36 10° NNW
DMSP B5D2-2 4.4 20:13:18 10° N 20:18:28 64° WNW 20:23:36 10° SSW
STARLINK-1104 4.0 20:14:45 10° WNW 20:18:47 52° SW 20:18:51 52° SSW
Cosmos 1328 3.7 20:16:27 10° N 20:20:25 87° NNE 20:20:25 87° NNE
STARLINK-1233 4.4 20:18:18 10° WNW 20:21:02 33° NNW 20:21:02 33° NNW
STARLINK-1212 4.5 20:18:47 10° WNW 20:21:27 33° NNW 20:21:27 33° NNW
SL-16 R/B 3.7 20:16:31 10° WSW 20:21:45 37° NW 20:27:00 10° NNE
STARLINK-1230 4.3 20:17:58 10° W 20:21:57 49° NNW 20:22:57 39° NNE
STARLINK-1105 4.5 20:19:13 10° WNW 20:21:54 33° NNW 20:21:54 33° NNW
Cosmos 921 Rocket 4.4 20:18:31 10° N 20:21:21 25° NE 20:21:21 25° NE
Cosmos 2228 2.8 20:22:39 81° SSE 20:22:51 86° E 20:27:11 10° N
STARLINK-1144 4.1 20:19:45 10° WNW 20:23:38 48° SW 20:23:38 48° SW
Cosmos 967 Rocket 4.4 20:17:36 10° SSW 20:24:00 70° ESE 20:30:29 10° NE
STARLINK-1243 4.4 20:22:50 10° W 20:26:48 48° NNW 20:27:35 41° NNE
Cosmos 1953 3.7 20:23:10 10° SW 20:26:53 38° WNW 20:30:38 10° N
STARLINK-1103 4.3 20:24:45 10° WNW 20:28:25 44° SW 20:28:25 44° SW
Cosmos 962 Rocket 4.5 20:24:32 10° N 20:30:42 62° ENE 20:31:43 54° ESE
STARLINK-1236 4.4 20:27:39 10° W 20:31:36 47° N 20:32:12 43° NNE
Nadezhda 1 Rocket 4.0 20:29:47 26° S 20:33:43 89° W 20:40:09 10° N
SL-8 Rocket 4.3 20:30:31 10° N 20:36:36 48° ENE 20:37:01 47° E
ISS -1.8 20:33:50 10° WNW 20:35:39 27° W 20:35:39 27° W
Cosmos 2058 Rocket 3.7 20:42:38 49° NNE 20:42:38 49° NNE 20:46:02 10° NNE
STARLINK-1269 4.5 20:37:37 10° W 20:41:33 45° N 20:41:43 44° N
MetOp-B 4.4 20:40:10 44° SSW 20:41:41 62° WSW 20:47:01 10° NNW
Cosmos 1603 3.8 20:37:37 10° SSW 20:43:15 74° WNW 20:48:53 10° NNE
SPOT 5 3.4 20:44:26 42° NNE 20:44:26 42° NNE 20:47:40 10° N
Cosmos 1703 4.1 20:40:12 10° NNW 20:43:49 47° W 20:43:49 47° W
Cosmos 2251 Rocket 4.3 20:38:57 10° SW 20:44:10 52° WNW 20:49:27 10° NNE
Cosmos 2366 rocket 4.4 20:38:31 10° N 20:44:18 43° ENE 20:44:18 43° ENE
IGS 5A 4.0 20:49:02 57° NNW 20:49:02 57° NNW 20:52:27 10° NNW
ERS-1 Rocket 3.0 20:48:38 70° NE 20:48:38 70° NE 20:53:22 10° N
CZ-2C R/B 3.7 20:44:21 10° N 20:49:15 42° WNW 20:54:05 10° SW
Landsat 7 3.8 20:49:40 77° W 20:49:40 77° W 20:54:22 10° NNW
Cosmos 1656 Rocket 3.8 20:56:06 10° NNW 21:01:43 62° WSW 21:02:03 61° SW
Aureole 1 Rocket 4.2 21:01:50 41° SSW 21:04:54 83° ESE 21:11:27 10° NNE
COSMOS 2455 3.0 21:09:23 10° NNW 21:15:09 62° NE 21:15:09 62° NE
In-Cosmos 22 Rocket 4.5 21:15:07 10° N 21:20:10 64° NNE 21:20:10 64° NNE
Cosmos 2341 Rocket 4.2 21:15:44 10° NNW 21:22:01 65° W 21:22:43 61° SW
Cosmos 1461 4.4 21:18:05 10° NNW 21:20:56 37° NNW 21:20:56 37° NNW
Cosmos 2369 Rocket 4.0 21:19:25 10° NW 21:23:38 22° W 21:25:03 20° WSW
NOSS 3-4 (A) 3.8 21:22:51 10° NW 21:29:49 74° SW 21:30:09 72° SSW
NOSS 3-4 (C) 3.8 21:22:57 10° NW 21:29:55 74° SW 21:30:14 73° SSW
Terra 2.9 21:32:46 43° NNW 21:32:46 43° NNW 21:36:01 10° NNW
ATLAS CENTAUR R/B 4.2 21:30:59 10° N 21:31:48 10° NNE 21:31:52 10° NNE
Cosmos 2218 Rocket 4.3 21:43:00 10° NNW 21:48:36 62° WNW 21:48:36 62° WNW
USA 234 4.1 21:51:52 10° ENE 21:58:05 47° NNW 22:04:17 10° W
ATLAS 2AS CENTAUR R/B 3.4 21:55:10 10° NW 22:01:48 45° WSW 22:01:48 45° WSW
Cosmos 1697 Rocket 4.1 22:06:18 10° NNW 22:10:12 33° NNE 22:10:12 33° NNE
Mayak 1.5 22:14:38 10° N 22:15:31 16° N 22:15:31 16° N
Cosmos 1980 Rocket 3.8 22:31:53 10° NNW 22:35:28 29° NNE 22:35:28 29° NNE
CZ-4C R/B 3.7 22:31:22 10° NW 22:37:45 41° NE 22:38:44 39° NE
Cosmos 2082 Rocket 4.5 23:00:52 15° NE 23:00:52 15° NE 23:01:57 10° NE
ATLAS 5 CENTAUR R/B 4.3 23:20:05 17° NNE 23:20:05 17° NNE 23:21:35 10° NNE
Cosmos 1833 Rocket 4.5 23:28:31 26° NNE 23:28:31 26° NNE 23:30:55 10° NNE
USA 234 4.2 23:34:18 10° ENE 23:40:22 42° N 23:46:26 10° WNW
SL-16 R/B 3.9 23:52:44 31° ENE 23:52:44 31° ENE 23:58:02 10° N
